period_start,C,m1,H,J0,J1,J2,J3,J4,J5,JA,JB,JC,JD,JJ,JK,JN,#
2018-08-12 00:03:22,0.41,6.07,0.00,30.43,34.15,36.49,13.75,59.63,1015.14,1993.93,1603.01,1922.14,2109.32,600.33,580.85,22.19,0000 0000 0000 0000 000000
2018-08-12 00:08:23,0.37,6.09,0.00,30.45,34.17,36.50,13.77,59.64,1015.13,1993.90,1599.47,1919.95,2106.66,600.05,580.65,22.24,0000 0000 0000 0000 000000
2018-08-12 00:13:25,0.39,6.11,0.00,30.47,34.17,36.50,13.74,59.82,1015.15,1993.89,1595.95,1917.76,2104.06,599.81,580.41,22.29,0000 0000 0000 0000 000000
2018-08-12 00:18:26,0.52,6.13,0.00,30.50,34.19,36.51,13.72,59.85,1015.15,1993.72,1591.77,1914.77,2100.61,600.04,580.51,22.35,0000 0000 0000 0000 000000
2018-08-12 00:23:27,0.39,6.16,0.00,30.52,34.20,36.52,13.74,59.91,1015.15,1993.75,1587.70,1912.20,2097.58,600.13,580.53,22.40,0000 0000 0000 0000 000000
2018-08-12 00:28:28,0.36,6.17,0.00,30.55,34.21,36.54,13.72,59.95,1015.15,1993.31,1584.15,1909.97,2094.96,600.08,580.39,22.45,0000 0000 0000 0000 000000
2018-08-12 00:33:30,0.45,6.19,0.00,30.57,34.22,36.55,13.78,60.02,1015.15,1993.20,1580.14,1907.42,2092.02,600.09,580.37,22.50,0000 0000 0000 0000 000000
2018-08-12 00:38:31,0.44,6.22,0.00,30.60,34.24,36.56,13.74,60.05,1015.15,1993.09,1575.93,1904.61,2088.78,600.44,580.72,22.55,0000 0000 0000 0000 000000
2018-08-12 00:43:32,0.42,6.24,0.00,30.62,34.25,36.58,13.79,60.14,1015.15,1993.00,1572.20,1902.31,2085.99,600.40,580.66,22.60,0000 0000 0000 0000 000000
2018-08-12 00:48:33,0.48,6.26,0.00,30.66,34.27,36.60,13.67,60.31,1015.15,1993.00,1567.70,1899.81,2083.00,599.80,579.90,22.65,0000 0000 0000 0000 000000
2018-08-12 00:53:35,0.46,6.29,0.00,30.69,34.28,36.61,13.76,60.36,1015.14,1993.00,1563.24,1897.31,2080.12,600.11,580.15,22.70,0000 0000 0000 0000 000000
2018-08-12 00:58:36,0.49,6.31,0.00,30.71,34.30,36.63,13.70,60.52,1015.13,1992.99,1558.91,1894.67,2076.97,599.91,579.90,22.75,0000 0000 0000 0000 000000
2018-08-12 01:03:37,0.50,6.34,0.00,30.74,34.32,36.64,13.69,60.58,1015.13,1992.96,1554.35,1891.89,2073.73,600.28,580.22,22.80,0000 0000 0000 0000 000000
2018-08-12 01:08:38,0.48,6.36,0.00,30.77,34.34,36.66,13.72,60.58,1015.14,1992.88,1549.90,1889.30,2070.63,599.96,579.95,22.85,0000 0000 0000 0000 000000
2018-08-12 01:13:40,0.44,6.38,0.00,30.81,34.36,36.68,13.78,60.71,1015.15,1992.72,1545.55,1886.75,2067.64,600.25,580.05,22.90,0000 0000 0000 0000 000000
2018-08-12 01:18:41,0.43,6.41,0.00,30.85,34.38,36.70,13.72,60.77,1015.15,1992.39,1541.16,1884.33,2064.85,599.83,579.59,22.95,0000 0000 0000 0000 000000
2018-08-12 01:23:43,0.42,6.43,0.00,30.88,34.40,36.72,13.70,60.97,1015.13,1992.13,1536.92,1882.03,2062.06,600.39,579.98,23.00,0000 0000 0000 0000 000000
2018-08-12 01:28:44,0.44,6.45,0.00,30.91,34.42,36.74,13.68,61.00,1015.14,1992.01,1532.81,1879.64,2059.26,600.23,579.96,23.05,0000 0000 0000 0000 000000
2018-08-12 01:33:45,0.46,6.47,0.00,30.95,34.45,36.76,13.67,61.12,1015.15,1992.00,1528.62,1877.24,2056.43,599.95,579.55,23.10,0000 0000 0000 0000 000000
2018-08-12 01:38:46,0.45,6.50,0.00,30.99,34.48,36.78,13.74,61.23,1015.15,1992.00,1524.40,1874.90,2053.68,600.20,579.73,23.15,0000 0000 0000 0000 000000
2018-08-12 01:43:48,0.49,6.52,0.00,31.03,34.50,36.79,13.76,61.43,1015.11,1991.99,1519.91,1872.41,2050.81,600.01,579.50,23.20,0000 0000 0000 0000 000000
2018-08-12 01:48:49,0.49,6.54,0.00,31.06,34.53,36.83,13.70,61.54,1015.07,1991.97,1515.50,1869.98,2048.00,599.86,579.31,23.25,0000 0000 0000 0000 000000
2018-08-12 01:53:50,0.39,6.57,0.00,31.11,34.56,36.85,13.73,61.58,1015.03,1991.74,1511.55,1867.58,2045.38,600.00,579.25,23.30,0000 0000 0000 0000 000000
2018-08-12 01:58:51,0.55,6.59,0.00,31.15,34.58,36.88,13.75,61.78,1015.08,1991.49,1506.92,1864.59,2042.07,600.15,579.33,23.35,0000 0000 0000 0000 000000
2018-08-12 02:03:52,0.47,6.62,0.00,31.19,34.61,36.91,13.73,61.92,1015.12,1991.33,1502.59,1861.96,2039.03,600.11,579.33,23.40,0000 0000 0000 0000 000000
2018-08-12 02:08:54,0.44,6.64,0.00,31.24,34.63,36.93,13.79,61.97,1015.15,1991.18,1498.37,1859.52,2036.21,600.40,579.45,23.45,0000 0000 0000 0000 000000
2018-08-12 02:13:55,0.45,6.66,0.00,31.28,34.66,36.96,13.80,62.27,1015.15,1991.05,1494.41,1857.11,2033.40,599.84,578.91,23.50,0000 0000 0000 0000 000000
2018-08-12 02:18:56,0.46,6.68,0.00,31.32,34.70,36.99,13.70,62.24,1015.15,1991.00,1490.25,1854.76,2030.54,599.62,578.61,23.55,0000 0000 0000 0000 000000
2018-08-12 02:23:58,0.47,6.71,0.00,31.37,34.73,37.02,13.72,62.45,1015.15,1991.00,1486.13,1852.40,2027.74,600.14,578.93,23.60,0000 0000 0000 0000 000000
2018-08-12 02:28:59,0.48,6.73,0.00,31.42,34.76,37.05,13.72,62.48,1015.15,1991.00,1482.09,1850.01,2024.97,600.00,578.67,23.65,0000 0000 0000 0000 000000
2018-08-12 02:34:00,0.47,6.75,0.00,31.47,34.79,37.08,13.71,62.50,1015.15,1990.96,1478.14,1847.48,2022.05,599.90,578.51,23.70,0000 0000 0000 0000 000000
2018-08-12 02:39:02,0.47,6.78,0.00,31.51,34.82,37.11,13.76,62.54,1015.16,1990.77,1474.05,1844.88,2018.99,600.03,578.65,23.75,0000 0000 0000 0000 000000
2018-08-12 02:44:03,0.42,6.80,0.00,31.57,34.86,37.14,13.69,62.57,1015.16,1990.29,1470.06,1842.22,2015.95,600.07,578.48,23.80,0000 0000 0000 0000 000000
2018-08-12 02:49:04,0.50,6.83,0.00,31.61,34.89,37.18,13.72,62.60,1015.17,1990.06,1465.79,1839.56,2012.85,600.10,578.48,23.85,0000 0000 0000 0000 000000
2018-08-12 02:54:06,0.48,6.85,0.00,31.65,34.92,37.21,13.74,62.69,1015.22,1990.00,1461.69,1837.04,2009.94,600.20,578.51,23.90,0000 0000 0000 0000 000000
2018-08-12 02:59:07,0.48,6.87,0.00,31.70,34.96,37.25,13.71,62.86,1015.22,1990.00,1457.69,1834.63,2007.19,599.93,578.21,23.95,0000 0000 0000 0000 000000
2018-08-12 03:04:08,0.48,6.90,0.00,31.74,34.99,37.28,13.62,62.97,1015.20,1989.97,1453.68,1832.23,2004.34,599.85,578.03,24.00,0000 0000 0000 0000 000000
2018-08-12 03:09:10,0.45,6.92,0.00,31.78,35.02,37.33,13.69,63.08,1015.21,1989.72,1449.70,1829.81,2001.47,599.94,578.02,24.05,0000 0000 0000 0000 000000
2018-08-12 03:14:10,0.44,6.94,0.00,31.82,35.05,37.35,13.74,63.11,1015.31,1989.28,1445.44,1827.34,1998.64,599.92,578.03,24.10,0000 0000 0000 0000 000000
2018-08-12 03:19:12,0.49,6.97,0.00,31.87,35.09,37.39,13.71,63.19,1015.36,1989.02,1441.20,1824.86,1995.70,600.05,578.15,24.15,0000 0000 0000 0000 000000
2018-08-12 03:24:13,0.49,6.99,0.00,31.91,35.12,37.43,13.69,63.27,1015.45,1989.00,1437.02,1822.41,1992.89,599.97,578.06,24.20,0000 0000 0000 0000 000000
2018-08-12 03:29:14,0.50,7.02,0.00,31.96,35.15,37.47,13.73,63.57,1015.58,1989.00,1432.84,1819.95,1990.01,600.13,578.05,24.25,0000 0000 0000 0000 000000
2018-08-12 03:34:16,0.55,7.05,0.00,32.00,35.19,37.50,13.68,63.67,1015.63,1988.94,1428.44,1817.27,1986.95,599.81,577.69,24.30,0000 0000 0000 0000 000000
2018-08-12 03:39:17,0.49,7.07,0.00,32.05,35.22,37.53,13.68,63.72,1015.64,1988.66,1423.92,1814.43,1983.76,599.83,577.64,24.35,0000 0000 0000 0000 000000
2018-08-12 03:44:19,0.48,7.10,0.00,32.10,35.26,37.58,13.69,63.98,1015.64,1988.22,1419.64,1811.72,1980.80,600.15,577.92,24.40,0000 0000 0000 0000 000000
2018-08-12 03:49:20,0.51,7.12,0.00,32.14,35.29,37.62,13.70,64.01,1015.64,1988.04,1415.38,1809.18,1977.83,600.19,577.78,24.45,0000 0000 0000 0000 000000
2018-08-12 03:54:22,0.57,7.15,0.00,32.18,35.33,37.65,13.72,64.25,1015.64,1988.00,1410.81,1806.49,1974.69,599.98,577.45,24.50,0000 0000 0000 0000 000000
2018-08-12 03:59:23,0.53,7.18,0.40,32.22,35.37,37.69,13.71,64.12,1015.64,1987.98,1406.44,1803.91,1971.70,600.39,577.78,24.55,0000 0000 0000 0000 000000
2018-08-12 04:04:24,0.53,7.20,1.00,32.27,35.41,37.72,13.70,64.41,1015.64,1987.91,1402.09,1801.33,1968.73,600.12,577.43,24.60,0000 0000 0000 0000 000000
2018-08-12 04:09:26,0.51,7.23,1.00,32.31,35.44,37.76,13.62,64.53,1015.64,1987.40,1397.35,1798.64,1965.57,599.78,577.06,24.65,0000 0000 0000 0000 000000
2018-08-12 04:14:27,0.59,7.26,1.00,32.35,35.48,37.80,13.67,64.26,1015.65,1987.02,1392.19,1795.82,1962.25,599.85,577.03,24.70,0000 0000 0000 0000 000000
2018-08-12 04:19:28,0.77,7.29,1.00,32.39,35.51,37.84,13.69,64.44,1015.66,1987.00,1386.07,1792.66,1958.46,600.02,577.20,24.75,0000 0000 0000 0000 000000
2018-08-12 04:24:30,0.96,7.34,1.00,32.42,35.55,37.87,13.70,64.72,1015.66,1986.99,1377.84,1788.96,1953.85,599.55,576.71,24.80,0000 0000 0000 0000 000000
2018-08-12 04:29:31,1.02,7.39,1.00,32.46,35.59,37.91,13.72,65.01,1015.66,1986.92,1368.70,1785.03,1949.00,600.33,577.39,24.85,0000 0000 0000 0000 000000
2018-08-12 04:34:32,0.94,7.44,1.00,32.51,35.63,37.95,13.64,65.31,1015.69,1986.38,1359.50,1781.00,1944.04,599.95,577.00,24.90,0000 0000 0000 0000 000000
2018-08-12 04:39:33,0.75,7.48,1.00,32.54,35.67,37.99,13.77,65.70,1015.73,1986.04,1352.29,1777.53,1939.89,600.23,577.15,24.95,0000 0000 0000 0000 000000
2018-08-12 04:44:34,0.80,7.52,1.00,32.59,35.71,38.03,13.75,65.65,1015.71,1986.00,1346.43,1774.33,1936.02,600.40,577.26,25.00,0000 0000 0000 0000 000000
2018-08-12 04:49:36,0.81,7.56,1.00,32.63,35.75,38.06,13.63,65.89,1015.80,1986.00,1339.86,1770.52,1931.63,599.67,576.55,25.05,0000 0000 0000 0000 000000
2018-08-12 04:54:37,0.95,7.61,1.00,32.66,35.79,38.10,13.64,66.07,1016.02,1985.92,1332.09,1766.63,1927.09,599.71,576.58,25.10,0000 0000 0000 0000 000000
2018-08-12 04:59:39,1.17,7.65,1.00,32.71,35.83,38.14,13.69,66.60,1016.08,1985.47,1322.61,1762.32,1921.90,599.80,576.62,25.15,0000 0000 0000 0000 000000
2018-08-12 05:04:40,1.95,7.74,1.00,32.74,35.86,38.18,13.74,67.11,1016.06,1985.08,1305.63,1756.14,1914.13,599.91,576.70,25.20,0000 0000 0000 0000 000000
2018-08-12 05:09:42,2.07,7.84,1.00,32.78,35.90,38.22,13.70,67.65,1016.05,1985.00,1286.60,1749.79,1905.94,599.85,576.65,25.25,0000 0000 0000 0000 000000
2018-08-12 05:14:43,1.98,7.95,1.00,32.81,35.94,38.26,13.76,68.26,1016.03,1985.00,1268.68,1743.68,1898.12,600.15,576.77,25.30,0000 0000 0000 0000 000000
2018-08-12 05:19:44,1.83,8.04,1.00,32.85,35.98,38.29,13.68,69.06,1016.02,1984.93,1252.19,1737.91,1890.81,600.36,576.95,25.35,0000 0000 0000 0000 000000
2018-08-12 05:24:45,1.77,8.13,1.00,32.88,36.02,38.33,13.77,69.82,1016.02,1984.52,1236.47,1732.28,1883.72,600.15,576.58,25.40,0000 0000 0000 0000 000000
2018-08-12 05:29:47,1.45,8.21,1.50,32.91,36.06,38.36,13.80,70.28,1016.06,1984.08,1223.59,1727.33,1877.58,600.27,576.64,25.45,0000 0000 0000 0000 000000
2018-08-12 05:34:48,1.73,8.29,2.00,32.95,36.09,38.39,13.74,70.76,1016.12,1984.00,1209.18,1722.16,1871.09,599.93,576.26,25.50,0000 0000 0000 0000 000000
2018-08-12 05:39:49,1.71,8.38,2.00,32.99,36.13,38.43,13.77,71.41,1016.11,1984.00,1195.18,1717.11,1864.81,599.69,576.05,25.55,0000 0000 0000 0000 000000
2018-08-12 05:44:51,1.08,8.44,2.00,33.03,36.17,38.47,13.79,71.82,1016.13,1983.98,1185.58,1713.02,1859.84,599.86,576.10,25.60,0000 0000 0000 0000 000000
2018-08-12 05:49:52,1.00,8.49,2.00,33.06,36.20,38.51,13.75,72.13,1016.13,1983.72,1178.18,1709.40,1855.70,599.90,576.26,25.65,0000 0000 0000 0000 000000
2018-08-12 05:54:53,0.99,8.54,2.00,33.10,36.24,38.55,13.78,72.63,1016.13,1983.24,1170.38,1705.64,1851.47,599.94,576.17,25.70,0000 0000 0000 0000 000000
2018-08-12 05:59:54,1.17,8.60,1.50,33.13,36.28,38.59,13.78,73.05,1016.13,1983.02,1161.57,1701.85,1846.94,600.00,576.09,25.75,0000 0000 0000 0000 000000
2018-08-12 06:04:55,1.66,8.66,1.00,33.16,36.32,38.63,13.76,73.53,1016.13,1983.00,1151.95,1696.54,1840.94,600.15,576.14,25.80,0000 0000 0000 0000 000000
2018-08-12 06:09:57,1.47,8.76,1.00,33.19,36.35,38.67,13.85,73.92,1016.13,1983.00,1141.73,1689.31,1833.17,600.26,576.19,25.85,0000 0000 0000 0000 000000
2018-08-12 06:14:58,1.09,8.81,1.00,33.23,36.39,38.69,13.79,74.28,1016.13,1983.00,1134.03,1685.40,1828.69,600.00,575.87,25.90,0000 0000 0000 0000 000000
2018-08-12 06:19:59,0.98,8.86,1.00,33.27,36.42,38.74,13.79,74.59,1016.13,1982.91,1127.01,1681.87,1824.59,599.78,575.49,25.95,0000 0000 0000 0000 000000
2018-08-12 06:25:00,0.88,8.91,1.00,33.31,36.46,38.77,13.80,74.81,1016.14,1982.37,1120.29,1678.65,1820.78,600.03,575.73,26.00,0000 0000 0000 0000 000000
2018-08-12 06:30:02,0.90,8.96,1.00,33.34,36.49,38.80,13.85,74.98,1016.14,1982.09,1113.73,1675.62,1817.27,600.15,575.82,26.05,0000 0000 0000 0000 000000
2018-08-12 06:35:03,0.90,9.00,1.00,33.39,36.53,38.84,13.78,75.24,1016.15,1982.01,1107.57,1672.57,1813.74,599.76,575.28,26.10,0000 0000 0000 0000 000000
2018-08-12 06:40:05,0.89,9.05,1.00,33.42,36.56,38.87,13.80,75.37,1016.13,1981.99,1101.42,1669.77,1810.46,599.95,575.49,26.15,0000 0000 0000 0000 000000
2018-08-12 06:45:06,0.86,9.09,1.00,33.46,36.60,38.90,13.88,75.68,1016.14,1981.93,1095.32,1667.07,1807.31,600.02,575.46,26.20,0000 0000 0000 0000 000000
2018-08-12 06:50:07,0.72,9.13,1.00,33.49,36.63,38.94,13.82,75.92,1016.15,1981.50,1089.61,1664.43,1804.23,600.22,575.54,26.26,0000 0000 0000 0000 000000
2018-08-12 06:55:08,0.76,9.17,1.00,33.53,36.66,38.97,13.73,76.08,1016.14,1981.10,1084.22,1661.96,1801.30,599.65,575.08,26.31,0000 0000 0000 0000 000000
2018-08-12 07:00:10,0.79,9.21,1.00,33.57,36.70,39.01,13.81,76.43,1016.16,1981.00,1078.82,1659.42,1798.37,599.97,575.25,26.36,0000 0000 0000 0000 000000
2018-08-12 07:05:11,0.81,9.25,1.00,33.61,36.74,39.05,13.81,76.53,1016.24,1981.00,1073.39,1656.94,1795.50,600.12,575.31,26.41,0000 0000 0000 0000 000000
2018-08-12 07:10:12,0.79,9.29,1.00,33.65,36.77,39.08,13.80,76.75,1016.30,1980.97,1068.03,1654.46,1792.65,599.88,574.99,26.46,0000 0000 0000 0000 000000
2018-08-12 07:15:14,0.73,9.32,1.00,33.68,36.81,39.12,13.80,76.96,1016.25,1980.78,1062.94,1652.07,1789.98,599.96,574.99,26.51,0000 0000 0000 0000 000000
2018-08-12 07:20:15,0.64,9.36,1.00,33.71,36.84,39.15,13.85,77.27,1016.43,1980.30,1058.10,1649.69,1787.32,600.23,575.38,26.56,0000 0000 0000 0000 000000
2018-08-12 07:25:16,0.92,9.40,1.00,33.75,36.88,39.19,13.80,77.64,1016.44,1980.03,1052.89,1646.73,1784.01,599.77,574.78,26.61,0000 0000 0000 0000 000000
2018-08-12 07:30:18,0.90,9.45,1.00,33.78,36.91,39.22,13.81,77.71,1016.32,1980.00,1047.54,1642.98,1779.98,599.97,574.94,26.66,0000 0000 0000 0000 000000
2018-08-12 07:35:19,0.69,9.49,1.00,33.82,36.94,39.26,13.81,77.98,1016.29,1979.99,1043.11,1640.66,1777.39,599.86,574.73,26.71,0000 0000 0000 0000 000000
2018-08-12 07:40:20,0.66,9.52,1.00,33.84,36.98,39.30,13.82,78.25,1016.28,1979.94,1038.95,1638.51,1774.95,600.21,574.99,26.76,0000 0000 0000 0000 000000
2018-08-12 07:45:22,0.60,9.55,1.00,33.87,37.01,39.33,13.85,78.59,1016.35,1979.58,1034.72,1636.34,1772.48,599.96,574.77,26.81,0000 0000 0000 0000 000000
2018-08-12 07:50:23,0.62,9.58,1.00,33.89,37.04,39.36,13.87,78.79,1016.47,1979.17,1030.59,1634.17,1770.08,599.86,574.68,26.86,0000 0000 0000 0000 000000
2018-08-12 07:55:24,0.65,9.61,1.00,33.91,37.08,39.39,13.79,78.97,1016.43,1979.02,1026.43,1632.04,1767.69,599.83,574.63,26.91,0000 0000 0000 0000 000000
2018-08-12 08:00:26,0.76,9.65,1.00,33.92,37.11,39.42,13.86,79.13,1016.37,1979.00,1022.18,1629.60,1765.03,600.20,574.87,26.96,0000 0000 0000 0000 000000
2018-08-12 08:05:27,0.93,9.70,1.00,33.94,37.14,39.46,13.85,79.43,1016.46,1979.00,1017.24,1625.82,1761.01,599.90,574.63,27.01,0000 0000 0000 0000 000000
2018-08-12 08:10:29,0.63,9.73,1.00,33.96,37.17,39.49,13.95,79.89,1016.57,1978.98,1013.30,1623.72,1758.60,599.98,574.70,27.06,0000 0000 0000 0000 000000
2018-08-12 08:15:30,0.80,9.77,1.00,33.98,37.19,39.51,13.86,79.90,1016.58,1978.73,1009.06,1620.81,1755.42,599.94,574.62,27.11,0000 0000 0000 0000 000000
2018-08-12 08:20:31,0.57,9.80,1.00,34.00,37.22,39.54,13.85,80.05,1016.60,1978.32,1005.02,1618.44,1752.89,600.28,574.96,27.16,0000 0000 0000 0000 000000
2018-08-12 08:25:32,0.62,9.83,1.00,34.02,37.25,39.57,13.97,80.38,1016.61,1978.04,1001.12,1616.44,1750.58,600.17,574.86,27.21,0000 0000 0000 0000 000000
2018-08-12 08:30:34,0.65,9.87,1.00,34.04,37.28,39.60,13.84,80.57,1016.61,1978.00,997.30,1614.42,1748.28,599.82,574.47,27.26,0000 0000 0000 0000 000000
2018-08-12 08:35:35,0.67,9.90,1.00,34.06,37.30,39.62,13.87,80.80,1016.62,1978.00,993.39,1612.40,1746.04,600.04,574.60,27.31,0000 0000 0000 0000 000000
2018-08-12 08:40:36,0.67,9.93,1.00,34.09,37.33,39.64,13.88,81.22,1016.62,1977.99,989.45,1610.38,1743.75,599.87,574.39,27.36,0000 0000 0000 0000 000000
2018-08-12 08:45:37,0.65,9.97,1.00,34.12,37.36,39.67,13.87,81.32,1016.62,1977.98,985.55,1608.37,1741.50,599.98,574.46,27.41,0000 0000 0000 0000 000000
2018-08-12 08:50:38,0.68,10.00,1.00,34.14,37.39,39.70,13.85,81.47,1016.62,1977.89,981.56,1606.35,1739.25,600.15,574.48,27.46,0000 0000 0000 0000 000000
2018-08-12 08:55:40,0.67,10.03,1.00,34.17,37.42,39.73,13.85,81.76,1016.63,1977.68,977.33,1604.30,1736.93,599.86,574.24,27.51,0000 0000 0000 0000 000000
2018-08-12 09:00:41,0.63,10.07,1.00,34.19,37.44,39.75,13.82,82.00,1016.63,1977.18,973.13,1602.23,1734.58,599.69,574.00,27.56,0000 0000 0000 0000 000000
2018-08-12 09:05:42,0.69,10.10,1.00,34.21,37.48,39.78,13.90,82.33,1016.70,1977.02,968.91,1600.25,1732.29,599.83,574.22,27.61,0000 0000 0000 0000 000000
2018-08-12 09:10:43,0.68,10.13,1.00,34.24,37.50,39.80,13.86,82.60,1016.83,1977.00,964.82,1598.43,1730.05,599.97,574.34,27.66,0000 0000 0000 0000 000000
2018-08-12 09:15:45,0.66,10.17,1.00,34.26,37.53,39.83,13.89,82.83,1016.91,1977.00,960.87,1596.49,1727.80,599.99,574.38,27.71,0000 0000 0000 0000 000000
2018-08-12 09:20:46,0.67,10.20,1.00,34.27,37.56,39.86,13.88,83.01,1016.98,1976.93,956.98,1594.57,1725.73,600.05,574.43,27.76,0000 0000 0000 0000 000000
2018-08-12 09:25:47,0.70,10.24,1.00,34.30,37.59,39.89,13.88,83.07,1017.05,1976.72,952.65,1592.45,1723.32,599.86,574.37,27.81,0000 0000 0000 0000 000000
2018-08-12 09:30:49,0.65,10.27,1.00,34.31,37.62,39.92,13.93,83.34,1017.08,1976.16,948.25,1590.31,1720.88,599.93,574.29,27.86,0000 0000 0000 0000 000000
2018-08-12 09:35:50,1.38,10.33,1.00,34.32,37.64,39.94,13.94,83.73,1017.10,1976.03,942.39,1585.54,1715.91,600.25,574.59,27.91,0000 0000 0000 0000 000000
2018-08-12 09:40:52,0.72,10.38,1.00,34.34,37.67,39.97,13.95,83.89,1017.10,1976.00,937.90,1583.11,1713.22,600.13,574.50,27.96,0000 0000 0000 0000 000000
2018-08-12 09:45:53,0.70,10.41,1.00,34.36,37.70,39.99,13.95,84.19,1017.10,1976.00,933.76,1581.30,1711.19,600.61,574.86,28.01,0000 0000 0000 0000 000000
2018-08-12 09:50:54,0.73,10.45,1.00,34.37,37.72,40.02,13.94,84.68,1017.10,1976.00,929.54,1579.47,1709.05,600.11,574.41,28.06,0000 0000 0000 0000 000000
2018-08-12 09:55:55,0.75,10.49,1.00,34.39,37.75,40.04,13.93,85.00,1017.10,1975.94,925.04,1577.63,1706.85,600.01,574.14,28.11,0000 0000 0000 0000 000000
2018-08-12 10:00:56,0.71,10.52,1.00,34.40,37.77,40.06,13.94,85.05,1017.10,1975.62,920.43,1575.69,1704.64,600.06,574.27,28.16,0000 0000 0000 0000 000000
2018-08-12 10:05:58,1.38,10.57,1.00,34.42,37.79,40.09,13.88,85.17,1017.11,1975.29,914.73,1571.93,1700.56,600.09,574.26,28.21,0000 0000 0000 0000 000000
2018-08-12 10:10:59,0.96,10.64,1.00,34.43,37.81,40.10,13.91,85.28,1017.11,1975.12,908.74,1567.98,1696.30,599.99,574.06,28.26,0000 0000 0000 0000 000000
2018-08-12 10:16:00,0.79,10.68,1.00,34.45,37.84,40.12,13.95,85.48,1017.12,1975.03,903.97,1566.05,1694.07,600.08,574.16,28.31,0000 0000 0000 0000 000000
2018-08-12 10:21:01,0.79,10.72,1.00,34.45,37.85,40.15,13.92,85.89,1017.12,1975.00,899.33,1564.21,1691.97,599.90,573.98,28.36,0000 0000 0000 0000 000000
2018-08-12 10:26:02,0.91,10.76,1.00,34.47,37.88,40.17,13.92,86.28,1017.12,1975.00,894.86,1561.91,1689.34,600.00,574.01,28.41,0000 0000 0000 0000 000000
2018-08-12 10:31:03,0.83,10.80,1.00,34.47,37.90,40.19,13.95,86.64,1017.14,1975.00,890.35,1559.36,1686.58,600.02,574.09,28.46,0000 0000 0000 0000 000000
2018-08-12 10:36:05,0.82,10.84,1.00,34.47,37.92,40.22,14.00,86.97,1017.12,1974.99,886.17,1557.13,1684.01,600.04,574.14,28.51,0000 0000 0000 0000 000000
2018-08-12 10:41:06,0.86,10.89,1.00,34.47,37.94,40.23,14.03,87.30,1017.12,1974.90,881.54,1554.90,1681.39,600.07,574.14,28.56,0000 0000 0000 0000 000000
2018-08-12 10:46:07,0.74,10.93,1.00,34.47,37.95,40.26,13.96,87.28,1017.13,1974.62,877.07,1552.96,1679.19,599.99,574.11,28.61,0000 0000 0000 0000 000000
2018-08-12 10:51:08,0.75,10.96,1.00,34.47,37.97,40.28,13.99,87.72,1017.14,1974.30,872.63,1551.06,1677.08,599.55,573.68,28.66,0000 0000 0000 0000 000000
2018-08-12 10:56:10,0.75,11.00,1.00,34.47,37.98,40.29,14.00,87.90,1017.20,1974.08,868.33,1549.31,1674.99,600.11,574.23,28.71,0000 0000 0000 0000 000000
2018-08-12 11:01:12,0.78,11.04,1.00,34.47,38.00,40.30,13.99,88.17,1017.16,1974.02,864.01,1547.49,1672.90,599.95,574.01,28.76,0000 0000 0000 0000 000000
2018-08-12 11:06:13,0.77,11.08,1.00,34.48,38.01,40.31,13.97,88.41,1017.14,1974.00,859.75,1545.73,1670.88,600.05,574.14,28.81,0000 0000 0000 0000 000000
2018-08-12 11:11:15,0.98,11.12,1.00,34.50,38.03,40.32,13.95,88.63,1017.17,1974.00,855.24,1543.31,1668.24,600.04,574.13,28.86,0000 0000 0000 0000 000000
2018-08-12 11:16:16,1.28,11.18,1.00,34.50,38.04,40.33,14.02,89.00,1017.17,1974.00,849.99,1539.66,1664.31,600.23,574.28,28.91,0000 0000 0000 0000 000000
2018-08-12 11:21:18,0.97,11.24,1.00,34.52,38.05,40.33,14.09,89.31,1017.14,1974.00,844.80,1536.38,1660.88,600.13,574.05,28.96,0000 0000 0000 0000 000000
2018-08-12 11:26:19,0.81,11.28,1.00,34.53,38.07,40.35,13.97,89.47,1017.16,1973.99,840.53,1534.50,1658.49,599.88,573.89,29.01,0000 0000 0000 0000 000000
2018-08-12 11:31:20,0.83,11.32,1.00,34.55,38.08,40.36,13.97,89.76,1017.27,1973.99,836.30,1532.52,1656.29,600.03,574.07,29.06,0000 0000 0000 0000 000000
2018-08-12 11:36:22,0.79,11.37,1.00,34.55,38.09,40.38,14.05,90.01,1017.52,1973.94,832.17,1530.57,1654.07,600.00,574.13,29.11,0000 0000 0000 0000 000000
2018-08-12 11:41:23,0.75,11.40,1.00,34.55,38.10,40.40,13.98,90.32,1017.58,1973.91,828.39,1528.72,1651.97,599.94,574.19,29.16,0000 0000 0000 0000 000000
2018-08-12 11:46:25,0.72,11.44,1.00,34.55,38.10,40.40,14.02,90.37,1017.58,1973.72,824.50,1527.04,1649.96,599.95,574.16,29.21,0000 0000 0000 0000 000000
2018-08-12 11:51:26,0.72,11.48,1.00,34.55,38.12,40.42,14.02,90.70,1017.59,1973.60,820.59,1525.39,1648.13,599.88,574.14,29.26,0000 0000 0000 0000 000000
2018-08-12 11:56:27,0.72,11.51,1.00,34.55,38.13,40.44,14.02,90.92,1017.59,1973.51,816.92,1523.75,1646.27,600.07,574.27,29.31,0000 0000 0000 0000 000000
2018-08-12 12:01:28,0.73,11.55,1.00,34.53,38.13,40.45,14.05,91.21,1017.59,1973.29,813.14,1522.03,1644.32,600.07,574.32,29.36,0000 0000 0000 0000 000000
2018-08-12 12:06:30,0.82,11.59,1.00,34.52,38.14,40.46,14.03,91.63,1017.59,1973.22,809.18,1519.97,1641.99,599.79,574.06,29.41,0000 0000 0000 0000 000000
2018-08-12 12:11:32,0.80,11.63,1.00,34.51,38.15,40.47,14.03,91.67,1017.59,1973.21,805.38,1518.02,1639.82,600.13,574.31,29.46,0000 0000 0000 0000 000000
2018-08-12 12:16:33,0.75,11.67,1.00,34.50,38.15,40.48,14.10,92.12,1017.59,1973.09,801.72,1516.09,1637.63,600.04,574.33,29.51,0000 0000 0000 0000 000000
2018-08-12 12:21:34,0.72,11.71,1.00,34.48,38.15,40.48,14.07,92.44,1017.59,1973.02,798.08,1514.43,1635.67,600.07,574.29,29.56,0000 0000 0000 0000 000000
2018-08-12 12:26:36,0.69,11.74,1.00,34.47,38.15,40.48,14.07,92.44,1017.59,1973.00,794.52,1512.95,1633.99,599.86,574.13,29.61,0000 0000 0000 0000 000000
2018-08-12 12:31:37,0.69,11.78,1.00,34.47,38.15,40.49,14.14,92.72,1017.59,1973.00,790.97,1511.62,1632.47,600.64,574.90,29.66,0000 0000 0000 0000 000000
2018-08-12 12:36:38,0.70,11.81,1.00,34.46,38.16,40.49,14.00,92.93,1017.60,1973.00,787.45,1510.24,1630.83,599.66,574.05,29.71,0000 0000 0000 0000 000000
2018-08-12 12:41:40,0.68,11.85,1.00,34.44,38.16,40.49,14.09,93.22,1017.60,1973.00,783.97,1508.82,1629.27,599.87,574.29,29.76,0000 0000 0000 0000 000000
2018-08-12 12:46:41,0.69,11.88,1.00,34.42,38.16,40.49,14.10,93.39,1017.59,1973.00,780.58,1507.56,1627.76,599.93,574.46,29.81,0000 0000 0000 0000 000000
2018-08-12 12:51:43,0.65,11.92,1.00,34.42,38.16,40.49,14.11,93.83,1017.60,1973.00,777.13,1506.39,1626.44,600.12,574.50,29.86,0000 0000 0000 0000 000000
2018-08-12 12:56:44,0.66,11.95,1.00,34.40,38.16,40.49,14.06,93.92,1017.60,1973.00,773.72,1505.26,1625.05,599.95,574.49,29.91,0000 0000 0000 0000 000000